Weather History for Phillips, WI

Change the Weather History Date:

Friday, January 18, 2013

  Actual Average Record
Temperature  
Mean Temperature 16 °F -  
Max Temperature 33 °F 18 °F 33 °F (2013)
Min Temperature -2 °F 2 °F -14 °F (1997)
Degree Days  
Heating Degree Days 50    
Moisture  
Dew Point 16 °F    
Average Humidity 86    
Maximum Humidity 100    
Minimum Humidity 74    
Precipitation  
Precipitation 0.00 in - - ()
Sea Level Pressure  
Sea Level Pressure 29.90 in    
Wind  
Wind Speed 4 mph (South)    
Max Wind Speed 13 mph    
Max Gust Speed 18 mph    
Visibility 8 miles    
Events Snow    
Averages and records for this station are not official NWS values.
T = Trace of Precipitation, MM = Missing Value Source: NWS Daily Summary

Daily Weather History Graph

Daily Weather History Graph

Search for Another Location

Airport:

Trip Planner

Search our weather history database for the weather conditions in past years. The results will help you decide how hot, cold, wet, or windy it might be!

Date:

Astronomy

Jan. 18, 2013 Rise Set
Actual Time 7:36 AM CST 4:48 PM CST
Civil Twilight 7:03 AM CST 5:21 PM CST
Nautical Twilight 6:26 AM CST 5:57 PM CST
Astronomical Twilight 5:51 AM CST 6:33 PM CST
Moon 10:49 AM CST (1/18) 12:03 AM CST (1/18)
Length of Visible Light 10h 17m
Length of Day
9h 11m
Waxing Crescent, 47% of the Moon is Illuminated
Jan 18
Waxing Crescent
Jan 18
First Quarter
Jan 26
Full
Feb 3
Last Quarter
Feb 10
New

Hourly Weather History & Observations

Time (CST) Temp. Windchill Dew Point Humidity Pressure Visibility Wind Dir Wind Speed Gust Speed Precip Events Conditions
12:15 AM -2.2 °F - -5.8 °F 85% 30.26 in 10.0 mi Calm Calm - N/A   Clear
12:35 AM -2.2 °F - -5.8 °F 85% 30.26 in 10.0 mi Calm Calm - N/A   Clear
12:55 AM -0.4 °F - -4.0 °F 85% 30.26 in 10.0 mi Calm Calm - N/A   Clear
1:15 AM 1.4 °F - -2.2 °F 85% 30.25 in 10.0 mi Calm Calm - N/A   Scattered Clouds
1:35 AM 1.4 °F - -0.4 °F 92% 30.25 in 10.0 mi Calm Calm - N/A   Scattered Clouds
1:55 AM 3.2 °F - 1.4 °F 92% 30.25 in 10.0 mi Calm Calm - N/A   Mostly Cloudy
2:15 AM 5.0 °F - 1.4 °F 85% 30.25 in 10.0 mi Calm Calm - N/A   Overcast
2:35 AM 6.8 °F -0.1 °F 3.2 °F 85% 30.24 in 10.0 mi South 3.5 mph - N/A   Overcast
2:55 AM 6.8 °F - 3.2 °F 85% 30.23 in 10.0 mi Calm Calm - N/A   Mostly Cloudy
3:15 AM 8.6 °F 2.0 °F 3.2 °F 79% 30.22 in 10.0 mi SE 3.5 mph - N/A   Overcast
3:35 AM 6.8 °F - 3.2 °F 85% 30.20 in 10.0 mi Calm Calm - N/A   Overcast
3:55 AM 6.8 °F -0.1 °F 3.2 °F 85% 30.18 in 10.0 mi SE 3.5 mph - N/A   Overcast
4:15 AM 8.6 °F 2.0 °F 5.0 °F 85% 30.17 in 10.0 mi SSE 3.5 mph - N/A   Overcast
4:35 AM 8.6 °F -3.7 °F 6.8 °F 92% 30.16 in 4.0 mi South 8.1 mph - N/A Snow Light Snow
4:55 AM 10.4 °F 2.2 °F 6.8 °F 85% 30.14 in 1.8 mi South 4.6 mph - N/A Snow Light Snow
5:15 AM 10.4 °F -0.4 °F 6.8 °F 85% 30.14 in 2.5 mi South 6.9 mph - N/A Snow Light Snow
5:35 AM 10.4 °F -1.5 °F 8.6 °F 92% 30.12 in 2.0 mi South 8.1 mph - N/A Snow Light Snow
5:55 AM 10.4 °F -1.5 °F 8.6 °F 92% 30.10 in 1.8 mi SSE 8.1 mph - N/A Snow Light Snow
6:15 AM 10.4 °F -1.5 °F 8.6 °F 92% 30.08 in 1.8 mi SSE 8.1 mph - N/A Snow Light Snow
6:35 AM 12.2 °F 0.7 °F 8.6 °F 85% 30.06 in 1.5 mi SSE 8.1 mph - N/A Snow Light Snow
6:55 AM 12.2 °F -0.2 °F 8.6 °F 85% 30.05 in 1.5 mi SSE 9.2 mph - N/A Snow Light Snow
7:15 AM 12.2 °F -1.0 °F 8.6 °F 85% 30.02 in 1.8 mi SSE 10.4 mph - N/A Snow Light Snow
7:35 AM 12.2 °F -1.0 °F 8.6 °F 85% 29.99 in 3.0 mi SSE 10.4 mph - N/A Snow Light Snow
7:55 AM 12.2 °F -0.2 °F 10.4 °F 92% 29.97 in 1.8 mi SE 9.2 mph - N/A Snow Light Snow
8:15 AM 14.0 °F 1.2 °F 10.4 °F 86% 29.96 in 7.0 mi SE 10.4 mph - N/A Snow Light Snow
8:35 AM 14.0 °F -0.2 °F 10.4 °F 86% 29.95 in 10.0 mi SSE 12.7 mph - N/A Snow Light Snow
8:55 AM 15.8 °F 2.7 °F 10.4 °F 79% 29.94 in 7.0 mi SSE 11.5 mph - N/A Snow Light Snow
9:15 AM 15.8 °F 2.7 °F 12.2 °F 86% 29.94 in 10.0 mi South 11.5 mph - N/A   Overcast
9:35 AM 17.6 °F 4.3 °F 14.0 °F 86% 29.92 in 10.0 mi South 12.7 mph 16.1 mph N/A   Overcast
9:55 AM 17.6 °F 5.7 °F 14.0 °F 86% 29.91 in 10.0 mi South 10.4 mph - N/A   Overcast
10:15 AM 19.4 °F 9.5 °F 15.8 °F 86% 29.90 in 10.0 mi South 8.1 mph - N/A   Overcast
10:35 AM 21.2 °F 10.9 °F 17.6 °F 86% 29.87 in 10.0 mi South 9.2 mph 18.4 mph N/A   Overcast
10:55 AM 21.2 °F 10.1 °F 17.6 °F 86% 29.85 in 10.0 mi South 10.4 mph - N/A   Overcast
11:15 AM 23.0 °F 11.7 °F 17.6 °F 80% 29.84 in 10.0 mi South 11.5 mph - N/A   Mostly Cloudy
11:35 AM 24.8 °F 15.3 °F 19.4 °F 80% 29.83 in 10.0 mi SSW 9.2 mph - N/A   Mostly Cloudy
11:55 AM 26.6 °F 19.1 °F 19.4 °F 74% 29.81 in 10.0 mi SSW 6.9 mph - N/A   Overcast
12:15 PM 26.6 °F 19.1 °F 21.2 °F 80% 29.79 in 10.0 mi SSW 6.9 mph - N/A   Overcast
12:35 PM 28.4 °F 21.2 °F 21.2 °F 74% 29.77 in 10.0 mi South 6.9 mph - N/A   Overcast
12:55 PM 28.4 °F 19.7 °F 23.0 °F 80% 29.76 in 10.0 mi SSW 9.2 mph - N/A   Overcast
1:15 PM 30.2 °F 23.4 °F 23.0 °F 75% 29.75 in 10.0 mi SSW 6.9 mph - N/A   Overcast
1:35 PM 30.2 °F 22.6 °F 24.8 °F 80% 29.74 in 10.0 mi SSW 8.1 mph - N/A   Mostly Cloudy
1:55 PM 30.2 °F 23.4 °F 24.8 °F 80% 29.73 in 10.0 mi SSW 6.9 mph - N/A   Scattered Clouds
2:15 PM 32.0 °F 24.8 °F 24.8 °F 75% 29.73 in 10.0 mi SW 8.1 mph - N/A   Scattered Clouds
2:35 PM 33.8 °F 30.8 °F 26.6 °F 75% 29.72 in 10.0 mi SW 3.5 mph - N/A   Scattered Clouds
2:55 PM 33.8 °F 30.8 °F 26.6 °F 75% 29.71 in 10.0 mi South 3.5 mph - N/A   Scattered Clouds
3:15 PM 33.8 °F 30.8 °F 26.6 °F 75% 29.72 in 10.0 mi SSW 3.5 mph - N/A   Mostly Cloudy
3:35 PM 33.8 °F 30.8 °F 26.6 °F 75% 29.71 in 10.0 mi SSW 3.5 mph - N/A   Mostly Cloudy
3:55 PM 33.8 °F - 26.6 °F 75% 29.71 in 10.0 mi Calm Calm - N/A   Mostly Cloudy
4:15 PM 33.8 °F - 26.6 °F 75% 29.71 in 10.0 mi Calm Calm - N/A   Mostly Cloudy
4:35 PM 33.8 °F - 26.6 °F 75% 29.73 in 10.0 mi Calm Calm - N/A   Overcast
4:55 PM 33.8 °F - 26.6 °F 75% 29.72 in 10.0 mi Calm Calm - N/A   Overcast
5:15 PM 32.0 °F - 26.6 °F 80% 29.72 in 10.0 mi Calm Calm - N/A   Overcast
5:35 PM 30.2 °F 26.7 °F 26.6 °F 86% 29.70 in 10.0 mi SE 3.5 mph - N/A   Mostly Cloudy
5:55 PM 32.0 °F 27.5 °F 26.6 °F 80% 29.69 in 10.0 mi SSE 4.6 mph - N/A   Scattered Clouds
6:15 PM 30.2 °F - 26.6 °F 86% 29.70 in 10.0 mi Calm Calm - N/A   Clear
6:35 PM 30.2 °F - 26.6 °F 86% 29.70 in 10.0 mi Calm Calm - N/A   Mostly Cloudy
6:55 PM 28.4 °F - 26.6 °F 93% 29.71 in 10.0 mi Calm Calm - N/A   Overcast
7:15 PM 28.4 °F - 26.6 °F 93% 29.71 in 10.0 mi Calm Calm - N/A   Overcast
7:35 PM 30.2 °F - 26.6 °F 86% 29.71 in 10.0 mi Calm Calm - N/A   Overcast
7:55 PM 26.6 °F - 24.8 °F 93% 29.71 in 7.0 mi Calm Calm - N/A   Scattered Clouds
8:15 PM 24.8 °F - 24.8 °F 100% 29.71 in 7.0 mi Calm Calm - N/A   Scattered Clouds
8:35 PM 23.0 °F - 21.2 °F 93% 29.71 in 1.8 mi Calm Calm - N/A   Mostly Cloudy
8:55 PM 23.0 °F - 21.2 °F 93% 29.72 in 5.0 mi Calm Calm - N/A   Scattered Clouds
9:15 PM 19.4 °F - 19.4 °F 100% 29.72 in 2.0 mi Calm Calm - N/A   Clear
9:35 PM 19.4 °F - 19.4 °F 100% 29.73 in 4.0 mi Calm Calm - N/A   Scattered Clouds
9:55 PM 19.4 °F - 19.4 °F 100% 29.72 in 3.0 mi Calm Calm - N/A   Scattered Clouds
10:15 PM 19.4 °F - 17.6 °F 93% 29.72 in 1.8 mi Calm Calm - N/A   Clear
10:35 PM 19.4 °F - 17.6 °F 93% 29.72 in 7.0 mi Calm Calm - N/A   Scattered Clouds
10:55 PM 21.2 °F - 19.4 °F 93% 29.72 in 7.0 mi Calm Calm - N/A   Mostly Cloudy
11:15 PM 24.8 °F - 24.8 °F 100% 29.71 in 10.0 mi Calm Calm - N/A   Overcast
11:35 PM 24.8 °F - 24.8 °F 100% 29.73 in 10.0 mi Calm Calm - N/A   Overcast
11:55 PM 26.6 °F - 24.8 °F 93% 29.72 in 10.0 mi Calm Calm - N/A   Overcast